timestamp,wind_dir_avg,wind_spd_avg,wind_spd_max_dir,wind_spd_gust,battery_voltage,lat,long
2023-01-21 00:04:00+00:00,58.0,11.98,62.0,13.43,12.33,47.59359,-54.27349
2023-01-21 00:14:00+00:00,56.0,12.31,59.0,13.44,12.25,47.59359,-54.27349
2023-01-21 00:24:00+00:00,66.0,11.31,65.0,14.12,12.25,47.59359,-54.27349
2023-01-21 00:34:00+00:00,68.0,9.84,72.0,11.72,12.25,47.59359,-54.27349
2023-01-21 00:44:00+00:00,68.0,11.12,69.0,12.49,12.25,47.59359,-54.27349
2023-01-21 00:54:00+00:00,64.0,10.07,67.0,11.77,12.25,47.59359,-54.27349
2023-01-21 01:04:00+00:00,63.0,10.76,59.0,12.95,12.25,47.59359,-54.27349
2023-01-21 01:14:00+00:00,65.0,10.79,62.0,12.29,12.25,47.59359,-54.27349
2023-01-21 01:24:00+00:00,60.0,9.28,56.0,12.0,12.25,47.59359,-54.27349
2023-01-21 01:34:00+00:00,61.0,10.65,58.0,12.91,12.25,47.59359,-54.27349
2023-01-21 01:44:00+00:00,62.0,10.2,69.0,11.89,12.25,47.59359,-54.27349
2023-01-21 01:54:00+00:00,55.0,8.99,65.0,11.04,12.25,47.59359,-54.27349
2023-01-21 02:04:00+00:00,59.0,8.98,59.0,12.29,12.25,47.59359,-54.27349
2023-01-21 02:14:00+00:00,63.0,12.55,60.0,14.52,12.25,47.59359,-54.27349
2023-01-21 02:24:00+00:00,55.0,8.11,54.0,9.78,12.25,47.59359,-54.27349
2023-01-21 02:34:00+00:00,59.0,12.33,54.0,14.34,12.25,47.59359,-54.27349
2023-01-21 02:44:00+00:00,50.0,8.51,58.0,12.78,12.25,47.59359,-54.27349
2023-01-21 02:54:00+00:00,57.0,10.43,59.0,12.95,12.25,47.59359,-54.27349
2023-01-21 03:04:00+00:00,315.0,0.01,42.0,0.0,12.25,47.59359,-54.27349
2023-01-21 03:14:00+00:00,50.0,10.51,52.0,11.48,12.25,47.59359,-54.27349
2023-01-21 03:24:00+00:00,56.0,11.08,56.0,11.09,12.25,47.59359,-54.27349
2023-01-21 03:34:00+00:00,50.0,10.07,58.0,15.35,12.25,47.59359,-54.27349
2023-01-21 03:44:00+00:00,45.0,9.63,44.0,12.41,12.25,47.59359,-54.27349
2023-01-21 03:54:00+00:00,51.0,13.04,54.0,15.75,12.25,47.59359,-54.27349
2023-01-21 04:04:00+00:00,44.0,10.69,44.0,13.01,12.25,47.59359,-54.27349
2023-01-21 04:14:00+00:00,46.0,10.17,43.0,14.21,12.25,47.59359,-54.27349
2023-01-21 04:24:00+00:00,53.0,13.13,54.0,15.12,12.25,47.59359,-54.27349
2023-01-21 04:34:00+00:00,53.0,11.68,57.0,14.91,12.25,47.59359,-54.27349
2023-01-21 04:44:00+00:00,48.0,12.47,42.0,13.78,12.25,47.59359,-54.27349
2023-01-21 04:54:00+00:00,60.0,14.61,65.0,17.35,12.25,47.59359,-54.27349
2023-01-21 05:04:00+00:00,51.0,11.87,52.0,14.23,12.25,47.59359,-54.27349
2023-01-21 05:14:00+00:00,50.0,12.68,58.0,15.42,12.17,47.59359,-54.27349
2023-01-21 05:24:00+00:00,52.0,14.54,57.0,17.07,12.17,47.59359,-54.27349
2023-01-21 05:34:00+00:00,49.0,12.62,54.0,15.91,12.17,47.59359,-54.27349
2023-01-21 05:44:00+00:00,51.0,13.46,51.0,15.27,12.17,47.59359,-54.27349
2023-01-21 05:54:00+00:00,54.0,15.38,57.0,17.88,12.17,47.59359,-54.27349
2023-01-21 06:04:00+00:00,54.0,15.13,54.0,17.56,12.17,47.59359,-54.27349
2023-01-21 06:14:01+00:00,54.0,15.48,58.0,18.54,12.17,47.59359,-54.27349
2023-01-21 06:24:01+00:00,56.0,15.55,55.0,18.54,12.17,47.59359,-54.27349
2023-01-21 06:34:01+00:00,52.0,15.62,54.0,18.54,12.17,47.59359,-54.27349
2023-01-21 06:44:01+00:00,51.0,14.63,52.0,17.5,12.17,47.59359,-54.27349
2023-01-21 06:54:01+00:00,50.0,14.72,53.0,17.01,12.17,47.59359,-54.27349
2023-01-21 07:04:01+00:00,52.0,14.93,47.0,17.86,12.17,47.59359,-54.27349
2023-01-21 07:14:00+00:00,50.0,14.73,48.0,18.06,12.17,47.59359,-54.27349
2023-01-21 07:24:00+00:00,51.0,16.0,51.0,18.45,12.17,47.59359,-54.27349
2023-01-21 07:34:00+00:00,53.0,16.46,53.0,18.66,12.17,47.59359,-54.27349
2023-01-21 07:44:00+00:00,51.0,17.35,54.0,19.23,12.17,47.59359,-54.27349
2023-01-21 07:54:00+00:00,52.0,16.23,52.0,18.54,12.17,47.59359,-54.27349
2023-01-21 08:04:00+00:00,57.0,17.41,56.0,20.29,12.17,47.59359,-54.27349
2023-01-21 08:14:00+00:00,54.0,16.84,53.0,21.43,12.09,47.59359,-54.27349
2023-01-21 08:24:00+00:00,55.0,14.28,53.0,18.34,12.09,47.59359,-54.27349
2023-01-21 08:34:00+00:00,56.0,16.0,55.0,19.9,12.09,47.59359,-54.27349
2023-01-21 08:44:00+00:00,57.0,18.74,59.0,21.25,12.09,47.59359,-54.27349
2023-01-21 08:54:00+00:00,53.0,18.92,52.0,22.08,12.09,47.59359,-54.27349
2023-01-21 09:04:00+00:00,50.0,17.1,47.0,20.26,12.09,47.59359,-54.27349
2023-01-21 09:14:00+00:00,53.0,17.19,50.0,19.46,12.09,47.59359,-54.27349
2023-01-21 09:24:00+00:00,52.0,16.82,52.0,20.22,12.09,47.59359,-54.27349
2023-01-21 09:34:00+00:00,54.0,17.23,58.0,20.04,12.09,47.59359,-54.27349
2023-01-21 09:44:00+00:00,52.0,16.7,53.0,19.57,12.09,47.59359,-54.27349
2023-01-21 09:54:00+00:00,48.0,16.24,49.0,20.25,12.09,47.59359,-54.27349
2023-01-21 10:04:00+00:00,51.0,17.01,58.0,20.3,12.09,47.59359,-54.27349
2023-01-21 10:14:00+00:00,48.0,14.81,53.0,18.63,12.09,47.59359,-54.27349
2023-01-21 10:24:00+00:00,49.0,14.7,45.0,17.33,12.09,47.59359,-54.27349
2023-01-21 10:34:00+00:00,51.0,15.87,54.0,18.93,12.09,47.59359,-54.27349
2023-01-21 10:44:00+00:00,49.0,18.59,51.0,20.95,12.09,47.59359,-54.27349
2023-01-21 10:54:00+00:00,52.0,18.12,48.0,20.82,12.09,47.59359,-54.27349
2023-01-21 11:04:00+00:00,53.0,17.45,54.0,20.24,12.09,47.59359,-54.27349
2023-01-21 11:14:00+00:00,51.0,17.14,44.0,20.89,12.09,47.59359,-54.27349
2023-01-21 11:24:00+00:00,53.0,18.62,49.0,20.68,12.09,47.59359,-54.27349
2023-01-21 11:34:00+00:00,49.0,16.4,49.0,19.73,12.09,47.59359,-54.27349
2023-01-21 11:44:00+00:00,52.0,15.41,49.0,19.52,12.09,47.59359,-54.27349
2023-01-21 11:54:00+00:00,49.0,17.23,50.0,20.93,12.09,47.59359,-54.27349
2023-01-21 12:04:00+00:00,47.0,16.82,49.0,20.22,12.09,47.59359,-54.27349
2023-01-21 12:14:00+00:00,51.0,15.32,49.0,19.32,12.09,47.59359,-54.27349
2023-01-21 12:24:00+00:00,51.0,15.39,52.0,18.53,12.09,47.59359,-54.27349
2023-01-21 12:34:00+00:00,51.0,18.53,51.0,20.07,12.09,47.59359,-54.27349
2023-01-21 12:44:00+00:00,52.0,15.71,52.0,19.38,12.09,47.59359,-54.27349
2023-01-21 12:54:00+00:00,51.0,17.09,49.0,20.48,12.09,47.59359,-54.27349
2023-01-21 13:04:00+00:00,48.0,17.07,44.0,20.71,12.09,47.59359,-54.27349
2023-01-21 13:14:00+00:00,49.0,16.84,51.0,19.49,12.25,47.59359,-54.27349
2023-01-21 13:24:00+00:00,49.0,19.43,44.0,22.44,12.25,47.59359,-54.27349
2023-01-21 13:34:00+00:00,50.0,19.99,50.0,22.18,12.25,47.59359,-54.27349
2023-01-21 13:44:00+00:00,50.0,17.7,46.0,21.21,12.25,47.59359,-54.27349
2023-01-21 13:54:00+00:00,51.0,17.81,57.0,22.46,12.25,47.59359,-54.27349
2023-01-21 14:04:00+00:00,45.0,16.25,42.0,20.63,12.25,47.59359,-54.27349
2023-01-21 14:14:01+00:00,48.0,19.16,41.0,21.37,12.25,47.59359,-54.27349
2023-01-21 14:24:01+00:00,50.0,19.16,55.0,23.48,12.25,47.59359,-54.27349
2023-01-21 14:34:01+00:00,45.0,18.42,42.0,21.84,12.25,47.59359,-54.27349
2023-01-21 14:44:01+00:00,46.0,18.31,40.0,21.45,12.25,47.59359,-54.27349
2023-01-21 14:54:01+00:00,47.0,19.22,40.0,22.13,12.25,47.59359,-54.27349
2023-01-21 15:04:01+00:00,46.0,17.0,44.0,21.0,12.25,47.59359,-54.27349
2023-01-21 15:14:00+00:00,51.0,17.67,60.0,21.08,12.25,47.59359,-54.27349
2023-01-21 15:24:00+00:00,49.0,16.83,52.0,19.94,12.25,47.59359,-54.27349
2023-01-21 15:34:00+00:00,50.0,17.98,48.0,20.94,12.25,47.59359,-54.27349
2023-01-21 15:44:00+00:00,49.0,19.0,50.0,22.36,12.25,47.59359,-54.27349
2023-01-21 15:54:00+00:00,42.0,18.42,39.0,22.16,12.25,47.59359,-54.27349
2023-01-21 16:04:00+00:00,44.0,18.54,38.0,22.68,12.25,47.59359,-54.27349
2023-01-21 16:14:00+00:00,41.0,18.46,47.0,21.56,12.17,47.59359,-54.27349
2023-01-21 16:24:00+00:00,40.0,18.91,34.0,22.21,12.17,47.59359,-54.27349
2023-01-21 16:34:00+00:00,43.0,16.16,43.0,20.96,12.17,47.59359,-54.27349
2023-01-21 16:44:00+00:00,42.0,17.98,42.0,21.7,12.17,47.59359,-54.27349
2023-01-21 16:54:00+00:00,41.0,17.17,45.0,21.31,12.17,47.59359,-54.27349
2023-01-21 17:04:00+00:00,34.0,16.89,42.0,20.26,12.17,47.59359,-54.27349
2023-01-21 17:14:01+00:00,38.0,16.18,33.0,18.73,12.49,47.59359,-54.27349
2023-01-21 17:24:01+00:00,39.0,16.89,34.0,19.94,12.49,47.59359,-54.27349
2023-01-21 17:34:01+00:00,36.0,14.21,34.0,17.25,12.49,47.59359,-54.27349
2023-01-21 17:44:01+00:00,33.0,14.28,33.0,16.23,12.49,47.59359,-54.27349
2023-01-21 17:54:01+00:00,21.0,16.39,22.0,16.4,12.49,47.59359,-54.27349
2023-01-21 18:04:01+00:00,38.0,15.42,44.0,19.13,12.49,47.59359,-54.27349
2023-01-21 18:14:00+00:00,37.0,16.56,48.0,19.83,12.25,47.59359,-54.27349
2023-01-21 18:24:00+00:00,32.0,16.71,37.0,20.53,12.25,47.59359,-54.27349
2023-01-21 18:34:00+00:00,32.0,17.23,34.0,21.04,12.25,47.59359,-54.27349
2023-01-21 18:44:00+00:00,31.0,16.47,28.0,18.82,12.25,47.59359,-54.27349
2023-01-21 18:54:00+00:00,34.0,16.8,42.0,21.14,12.25,47.59359,-54.27349
2023-01-21 19:04:00+00:00,31.0,16.25,27.0,19.65,12.25,47.59359,-54.27349
2023-01-21 19:14:00+00:00,34.0,16.62,43.0,21.03,12.09,47.59359,-54.27349
2023-01-21 19:24:00+00:00,32.0,17.44,42.0,22.01,12.09,47.59359,-54.27349
2023-01-21 19:34:00+00:00,34.0,17.4,48.0,20.27,12.09,47.59359,-54.27349
2023-01-21 19:44:00+00:00,31.0,16.37,36.0,21.69,12.09,47.59359,-54.27349
2023-01-21 19:54:00+00:00,33.0,18.61,34.0,22.61,12.09,47.59359,-54.27349
2023-01-21 20:04:00+00:00,32.0,16.6,32.0,20.57,12.09,47.59359,-54.27349
2023-01-21 20:14:00+00:00,31.0,15.19,23.0,18.64,12.09,47.59359,-54.27349
2023-01-21 20:24:00+00:00,29.0,17.4,25.0,22.5,12.09,47.59359,-54.27349
2023-01-21 20:34:00+00:00,30.0,18.86,42.0,23.46,12.09,47.59359,-54.27349
2023-01-21 20:44:00+00:00,29.0,18.19,39.0,21.33,12.09,47.59359,-54.27349
2023-01-21 20:54:00+00:00,30.0,17.93,30.0,21.25,12.09,47.59359,-54.27349
2023-01-21 21:04:00+00:00,33.0,16.84,45.0,19.56,12.09,47.59359,-54.27349
2023-01-21 21:14:00+00:00,30.0,17.75,39.0,20.13,12.09,47.59359,-54.27349
2023-01-21 21:24:00+00:00,30.0,16.51,29.0,19.78,12.09,47.59359,-54.27349
2023-01-21 21:34:00+00:00,28.0,17.5,30.0,21.13,12.09,47.59359,-54.27349
2023-01-21 21:44:00+00:00,31.0,18.01,28.0,20.96,12.09,47.59359,-54.27349
2023-01-21 21:54:00+00:00,31.0,18.87,35.0,22.81,12.09,47.59359,-54.27349
2023-01-21 22:04:00+00:00,27.0,17.89,26.0,20.97,12.09,47.59359,-54.27349
2023-01-21 22:14:00+00:00,32.0,16.83,29.0,20.76,12.09,47.59359,-54.27349
2023-01-21 22:24:00+00:00,28.0,17.96,23.0,22.8,12.09,47.59359,-54.27349
2023-01-21 22:34:00+00:00,29.0,15.04,34.0,17.86,12.09,47.59359,-54.27349
2023-01-21 22:44:00+00:00,28.0,16.17,27.0,20.07,12.09,47.59359,-54.27349
2023-01-21 22:54:00+00:00,29.0,14.12,22.0,16.82,12.09,47.59359,-54.27349
2023-01-21 23:04:00+00:00,29.0,17.1,30.0,19.91,12.09,47.59359,-54.27349
2023-01-21 23:14:00+00:00,27.0,16.98,23.0,20.91,12.01,47.59359,-54.27349
2023-01-21 23:24:00+00:00,27.0,16.43,33.0,20.3,12.01,47.59359,-54.27349
2023-01-21 23:34:00+00:00,30.0,18.27,33.0,20.34,12.01,47.59359,-54.27349
2023-01-21 23:44:00+00:00,28.0,17.58,27.0,21.25,12.01,47.59359,-54.27349
2023-01-21 23:54:00+00:00,29.0,17.3,24.0,20.27,12.01,47.59359,-54.27349
